Location: Anjeux
(47.8815°N, 6.2076°E)
Time: 12:05:08
(UTC+00:00)

AO-27 - Pass Details

Date: 15 December 2021
Orbit: 784 x 798 km, 98.9° (Epoch: 24 January)

Event Time Altitude Azimuth Distance (km) Brightness Sun altitude
Rises 17:28:57 0° 149° (SSE) 3,291 10.7 -16.8°
Reaches altitude 10° 17:31:18 10° 145° (SE) 2,366 9.9 -17.2°
Maximum altitude 17:36:23 55° 69° (ENE) 962 7.7 -18.0°
Drops below altitude 10° 17:41:30 10° 353° (N) 2,382 10.1 -18.8°
Sets 17:43:52 0° 349° (N) 3,315 10.9 -19.2°
